• în România
  • Lista ţărilor
  • Pe 7 zile
  • Temperatura apei
  • Hartă satelitară
  • Meteo pe hartă
  • Widget-uri
  • user-avatar
    Intrare

    Meteo pe oră la Dubovyy Gay

    Astăzi, 22 Iunie, Vineri

    Timp Temperatura Precipitaţii Vânt Presiune Umiditate
    00:00 +13°C° 0 mm 4 m/s 744 mmHg 76%
    01:00 +13°C° 0 mm 4 m/s 745 mmHg 77%
    02:00 +12°C° 0 mm 4 m/s 745 mmHg 78%
    03:00 +12°C° 0 mm 4 m/s 745 mmHg 78%
    04:00 +13°C° 0 mm 5 m/s 746 mmHg 76%
    05:00 +14°C° 0 mm 5 m/s 746 mmHg 74%
    06:00 +14°C° 0 mm 5 m/s 746 mmHg 72%
    07:00 +16°C° 0 mm 5 m/s 746 mmHg 67%
    08:00 +17°C° 0 mm 6 m/s 746 mmHg 62%
    09:00 +20°C° 0 mm 6 m/s 747 mmHg 57%
    10:00 +21°C° 0 mm 6 m/s 747 mmHg 55%
    11:00 +22°C° 0 mm 6 m/s 747 mmHg 52%
    12:00 +23°C° 0 mm 6 m/s 747 mmHg 50%
    13:00 +23°C° 0 mm 6 m/s 747 mmHg 50%
    14:00 +23°C° 0 mm 6 m/s 748 mmHg 50%
    15:00 +23°C° 0 mm 6 m/s 748 mmHg 50%
    16:00 +23°C° 0 mm 5 m/s 748 mmHg 55%
    17:00 +22°C° 0 mm 4 m/s 748 mmHg 59%
    18:00 +21°C° 0 mm 3 m/s 748 mmHg 64%
    19:00 +20°C° 0 mm 3 m/s 748 mmHg 67%
    20:00 +18°C° 0 mm 2 m/s 748 mmHg 71%
    21:00 +16°C° 0 mm 2 m/s 748 mmHg 75%
    22:00 +16°C° 0 mm 2 m/s 748 mmHg 76%
    23:00 +15°C° 0 mm 2 m/s 749 mmHg 77%

    Mâine, 23 Iunie, Sâmbătă

    Timp Temperatura Precipitaţii Vânt Presiune Umiditate
    00:00 +15°C° 0 mm 2 m/s 749 mmHg 78%
    01:00 +14°C° 0 mm 2 m/s 749 mmHg 81%
    02:00 +14°C° 0 mm 2 m/s 749 mmHg 83%
    03:00 +14°C° 0 mm 2 m/s 749 mmHg 85%
    04:00 +15°C° 0 mm 2 m/s 749 mmHg 82%
    05:00 +17°C° 0 mm 2 m/s 749 mmHg 80%
    06:00 +18°C° 0 mm 2 m/s 749 mmHg 77%
    07:00 +20°C° 0 mm 2 m/s 749 mmHg 72%
    08:00 +23°C° 0 mm 2 m/s 749 mmHg 66%
    09:00 +24°C° 0 mm 2 m/s 750 mmHg 61%
    10:00 +25°C° 0 mm 2 m/s 750 mmHg 58%
    11:00 +26°C° 0 mm 3 m/s 749 mmHg 55%
    12:00 +27°C° 0 mm 3 m/s 749 mmHg 52%
    13:00 +28°C° 0 mm 3 m/s 749 mmHg 53%
    14:00 +28°C° 0 mm 3 m/s 749 mmHg 53%
    15:00 +28°C° 0 mm 3 m/s 749 mmHg 53%
    16:00 +28°C° 0 mm 2 m/s 749 mmHg 57%
    17:00 +28°C° 0 mm 2 m/s 749 mmHg 61%
    18:00 +27°C° 0 mm 2 m/s 748 mmHg 66%
    19:00 +25°C° 0 mm 1 m/s 748 mmHg 71%
    20:00 +24°C° 0 mm 1 m/s 748 mmHg 76%
    21:00 +22°C° 0 mm 1 m/s 749 mmHg 81%
    22:00 +21°C° 0 mm 1 m/s 749 mmHg 82%
    23:00 +21°C° 0 mm 1 m/s 749 mmHg 83%

    Poimâine, 24 Iunie, Duminică

    Timp Temperatura Precipitaţii Vânt Presiune Umiditate
    00:00 +21°C° 0 mm 1 m/s 749 mmHg 83%
    01:00 +20°C° 0 mm 1 m/s 749 mmHg 84%
    02:00 +20°C° 0 mm 1 m/s 749 mmHg 85%
    03:00 +20°C° 0 mm 1 m/s 749 mmHg 86%
    04:00 +21°C° 0 mm 1 m/s 749 mmHg 82%
    05:00 +22°C° 0 mm 1 m/s 749 mmHg 79%
    06:00 +23°C° 0 mm 1 m/s 750 mmHg 75%
    07:00 +25°C° 0 mm 1 m/s 750 mmHg 71%
    08:00 +26°C° 0 mm 1 m/s 750 mmHg 67%
    09:00 +28°C° 0 mm 1 m/s 750 mmHg 63%
    10:00 +29°C° 0 mm 1 m/s 750 mmHg 60%
    11:00 +29°C° 0 mm 1 m/s 750 mmHg 57%
    12:00 +30°C° 0 mm 1 m/s 750 mmHg 54%
    13:00 +30°C° 0,3 mm 1 m/s 750 mmHg 54%
    14:00 +31°C° 0,3 mm 2 m/s 750 mmHg 54%
    15:00 +31°C° 0,3 mm 2 m/s 750 mmHg 54%
    16:00 +30°C° 0,7 mm 2 m/s 750 mmHg 59%
    17:00 +29°C° 0,7 mm 1 m/s 750 mmHg 64%
    18:00 +29°C° 0,7 mm 1 m/s 750 mmHg 70%
    19:00 +27°C° 0 mm 1 m/s 750 mmHg 74%
    20:00 +25°C° 0 mm 1 m/s 750 mmHg 78%
    21:00 +24°C° 0 mm 1 m/s 751 mmHg 82%
    22:00 +21°C° 0 mm 0 m/s 751 mmHg 84%
    23:00 +21°C° 0 mm 0 m/s 751 mmHg 85%

    25 Iunie, Luni

    Timp Temperatura Precipitaţii Vânt Presiune Umiditate
    00:00 +21°C° 0 mm 0 m/s 751 mmHg 87%
    01:00 +20°C° 0 mm 0 m/s 751 mmHg 87%
    02:00 +20°C° 0 mm 0 m/s 751 mmHg 88%
    03:00 +20°C° 0 mm 0 m/s 751 mmHg 88%
    04:00 +21°C° 0 mm 0 m/s 752 mmHg 85%
    05:00 +22°C° 0 mm 0 m/s 752 mmHg 83%
    06:00 +23°C° 0 mm 0 m/s 752 mmHg 80%
    07:00 +25°C° 0,1 mm 0 m/s 752 mmHg 75%
    08:00 +26°C° 0,1 mm 0 m/s 752 mmHg 69%
    09:00 +27°C° 0,1 mm 0 m/s 752 mmHg 64%
    10:00 +30°C° 0,1 mm 1 m/s 752 mmHg 61%
    11:00 +31°C° 0,1 mm 1 m/s 752 mmHg 57%
    12:00 +31°C° 0,1 mm 1 m/s 752 mmHg 54%
    13:00 +31°C° 0,1 mm 2 m/s 752 mmHg 54%
    14:00 +32°C° 0,1 mm 2 m/s 752 mmHg 54%
    15:00 +32°C° 0,1 mm 2 m/s 751 mmHg 54%
    16:00 +31°C° 0,3 mm 2 m/s 751 mmHg 58%
    17:00 +30°C° 0,3 mm 2 m/s 751 mmHg 62%
    18:00 +29°C° 0,3 mm 2 m/s 751 mmHg 67%
    19:00 +28°C° 0 mm 2 m/s 751 mmHg 71%
    20:00 +26°C° 0 mm 1 m/s 751 mmHg 74%
    21:00 +25°C° 0 mm 1 m/s 752 mmHg 78%
    22:00 +24°C° 0 mm 1 m/s 752 mmHg 81%
    23:00 +24°C° 0 mm 1 m/s 752 mmHg 83%

    26 Iunie, Marţi

    Timp Temperatura Precipitaţii Vânt Presiune Umiditate
    00:00 +23°C° 0 mm 1 m/s 752 mmHg 86%
    01:00 +23°C° 0 mm 1 m/s 752 mmHg 87%
    02:00 +22°C° 0 mm 1 m/s 752 mmHg 88%
    03:00 +21°C° 0 mm 2 m/s 752 mmHg 90%
    04:00 +23°C° 0 mm 2 m/s 752 mmHg 87%
    05:00 +24°C° 0 mm 2 m/s 752 mmHg 84%
    06:00 +25°C° 0 mm 3 m/s 752 mmHg 82%
    07:00 +26°C° 0,2 mm 3 m/s 752 mmHg 76%
    08:00 +28°C° 0,2 mm 3 m/s 752 mmHg 71%
    09:00 +29°C° 0,2 mm 4 m/s 752 mmHg 65%
    10:00 +29°C° 0,8 mm 4 m/s 752 mmHg 65%
    11:00 +30°C° 0,8 mm 5 m/s 752 mmHg 65%
    12:00 +30°C° 0,8 mm 5 m/s 752 mmHg 65%
    13:00 +30°C° 0,3 mm 5 m/s 752 mmHg 64%
    14:00 +30°C° 0,3 mm 5 m/s 752 mmHg 62%
    15:00 +30°C° 0,3 mm 5 m/s 752 mmHg 61%
    16:00 +29°C° 0,1 mm 4 m/s 752 mmHg 65%
    17:00 +29°C° 0,1 mm 4 m/s 752 mmHg 69%
    18:00 +28°C° 0,1 mm 4 m/s 752 mmHg 73%
    19:00 +27°C° 0 mm 3 m/s 752 mmHg 78%
    20:00 +25°C° 0 mm 3 m/s 752 mmHg 82%
    21:00 +24°C° 0 mm 3 m/s 753 mmHg 86%
    22:00 +22°C° 0 mm 3 m/s 752 mmHg 88%
    23:00 +21°C° 0 mm 3 m/s 752 mmHg 89%

    27 Iunie, Miercuri

    Timp Temperatura Precipitaţii Vânt Presiune Umiditate
    00:00 +21°C° 0 mm 3 m/s 752 mmHg 91%
    01:00 +21°C° 0 mm 2 m/s 752 mmHg 92%
    02:00 +20°C° 0 mm 2 m/s 753 mmHg 93%
    03:00 +20°C° 0 mm 2 m/s 753 mmHg 94%
    04:00 +21°C° 0 mm 3 m/s 753 mmHg 91%
    05:00 +22°C° 0 mm 3 m/s 753 mmHg 87%
    06:00 +24°C° 0 mm 3 m/s 753 mmHg 84%
    07:00 +25°C° 0 mm 3 m/s 753 mmHg 79%
    08:00 +27°C° 0 mm 3 m/s 753 mmHg 74%
    09:00 +28°C° 0 mm 4 m/s 753 mmHg 69%
    10:00 +29°C° 0 mm 4 m/s 753 mmHg 64%
    11:00 +30°C° 0 mm 4 m/s 752 mmHg 60%
    12:00 +32°C° 0 mm 4 m/s 752 mmHg 56%
    13:00 +32°C° 0 mm 4 m/s 752 mmHg 56%
    14:00 +32°C° 0 mm 4 m/s 752 mmHg 55%
    15:00 +32°C° 0 mm 5 m/s 752 mmHg 54%
    16:00 +32°C° 0,1 mm 4 m/s 752 mmHg 59%
    17:00 +30°C° 0,1 mm 4 m/s 752 mmHg 64%
    18:00 +29°C° 0,1 mm 4 m/s 752 mmHg 69%
    19:00 +28°C° 0,1 mm 3 m/s 752 mmHg 74%
    20:00 +26°C° 0,1 mm 3 m/s 752 mmHg 78%
    21:00 +24°C° 0,1 mm 3 m/s 752 mmHg 83%
    22:00 +24°C° 0 mm 3 m/s 752 mmHg 85%
    23:00 +22°C° 0 mm 3 m/s 752 mmHg 88%
    Arată mai mult